Aérodrome :
LOGIN :

S'inscrire | Disclaimer

   EN    FR    IT 

 










Légende :    VFR   VFR Marginal   IFR   IFR Intensif   IFR Très Intensif
Visi : 
Plafond : 
>= 8 km
>= 3000ft
5 à 8 km
1000 à 3000 ft
1500m à 5 km
500 à 1000 ft
800 à 1500m
200 à 500 ft
< 800m
< 200 ft
Symboles :   Orages  Brouillard  Fortes neiges  Fortes précipitations  Vent > 20 kt
SIGMETs :   Divers  Orages  Givrage  Turbulence  Onde Orograph.  Cendres Volcan.







- Altitude de l'aérodrome : 117 ft
- Code IATA : NWI
- Voir les cartes d'approche


EGSH - Norwich

DERNIER METAR :
  • 180350Z AUTO 24004KT 9999 NCD M03/M04 Q1018

METARs EXPIRÉS :
  • 180320Z AUTO 23004KT 9999 NCD M02/M03 Q1018
  • 180250Z AUTO 24004KT 9999 NCD M02/M03 Q1018
  • 180220Z AUTO VRB02KT 9999 NCD M01/M02 Q1018
  • 180150Z AUTO 28006KT 9999 NCD M00/M01 Q1017
  • 180120Z AUTO 28006KT 9999 NCD M00/M01 Q1017
  • 180050Z AUTO 27007KT 9999 NCD M00/M02 Q1017

TAF TAF EGSH
Valide du 18 à 03h jusqu'au 18 à 12h UTC


180157Z 1803/1812 29006KT 9999 FEW030
ATIS : +44 1603 420 640
Pas de NOTAMs connus pour ce terrain.



MET'MAP, la Météo Aéronautique d'un coup d'oeil ! - Copyright ORBIFLY Décembre 2007 - Disclaimer

ORBIFLY MET'MAP TEAM :

Programmation & Développement : Alexandra Zaïnal
Conception & Développement : Baudouin d'Aumeries
Co-Programmation & Développement : Marc-Olivier Méhu
Soutien technique & logistique : Manuel Goepfert

Contact : metmap@orbifly.com




SOURCES & CREDITS :

   NOAA